Location: Ladirat
(44.8151°N, 1.9702°E)
Time: 21:02:56
(UTC+00:00)

USA 290 - Pass Details

Date: 15 May 2026
Orbit: 396 x 415 km, 73.6° (Epoch: 30 October)

Event Time Altitude Azimuth Distance (km) Brightness Sun altitude
Exits shadow 21:18:07 53° 99° (E) 488 2.2 -17.5°
Drops below altitude 10° 21:21:05 10° 30° (NNE) 1,433 5.2 -17.9°
Sets 21:23:08 0° 26° (NNE) 2,293 6.4 -18.1°
